IRIDIUM 80 [-] (25469 NORAD) Tracking and Keplerian Element Data

This shows tracking and keplerian element data for the satellite.

Feedback or suggestion? Click here.




ElementValue
Catalog25469
NameIRIDIUM 80 [-]
Epoch Orbit4353
Epoch Day223.95200989
Epoch Year2018
RAAN203.0951
Inclination86.3453
Eccentricity0.0057884
Argument of Perigee256.2593
Mean Anonmoly103.3611
Mean Motion16.45147878
Decay Rate0.22939717
L11 25469U 98051C 18223.95200989 .22939717 -17519-5 20398-3 0 9991
L22 25469 86.3453 203.0951 0057884 256.2593 103.3611 16.45147878 43532

Live tracking and technical data element details for IRIDIUM 80 [-] (NORAD 25469). IRIDIUM 80 [-] can be tracked NOW for your location showing map with azimuth and elevation plus other details from your city location.

Track the satellite on the map from your city or location and see movement details for azimuth, elevation, latitude, longitude, range, height, and movement on the map or in text.







IsCatalogInMostPopularTable: catalog: 25469, numindb: 50
Update: records affected: 1



GetName: 25469 IRIDIUM 80 [-]

Hit Count: updated at: Sat, 15 Dec 2018 18:15:01 GMT